Home   Weather   Veracruz   Past weeks

Flag for Mexico Past Weather in Veracruz, Veracruz, Mexico — Yesterday and Last 2 Weeks

Now
72 °F

Clear.


Feels Like: 67 °F
Forecast: 74 / 84 °F
Wind: 3 mph from Northwest

Location: Gen. Heriberto Jara

Current Time: Feb 28, 2017 at 4:18:05 am

Latest Report: Feb 28, 2017 at 2:44 am


Visibility: 6 mi

Pressure: 29.96 "Hg

Humidity: 94%

Dew Point: 70 °F

Location of VeracruzLocation

Past Weather in Veracruz — Graph

°F

Veracruz Temperature Yesterday

Maximum temperature yesterday: 88 °F (at 12:42 pm)
Minimum temperature yesterday: 68 °F (at 5:44 am)
Average temperature yesterday: 79 °F

High & Low Weather Summary for the Past Weeks

 TemperatureHumidityPressure
High93 °F (Feb 23, 1:41 pm)100% (Feb 13, 2:42 am)30.14 "Hg (Feb 13, 2:42 am)
Low55 °F (Feb 23, 6:41 am)18% (Feb 22, 1:43 pm)29.61 "Hg (Feb 14, 5:45 pm)
Average76 °F73%29.88 "Hg
* Reported Feb 13 2:42 am — Feb 28 2:44 am, Veracruz, Weather by CustomWeather, © 2017

Note: Actual official high and low records may vary slightly from our data, if they occured in-between our weather recording intervals... More about our weather records

Advertising

Veracruz Weather History for the Previous 24 Hours

Scroll right to see more
 ConditionsComfort  
Time TempWeatherWind HumidityBarometerVisibility
2:44 am
Tue, Feb 28
72 °FClear.3 mph94%29.96 "Hg6 mi
1:44 am73 °FClear.2 mph94%29.94 "Hg6 mi
12:45 am73 °FClear.3 mph94%29.95 "Hg6 mi
11:47 pm
Mon, Feb 27
75 °FPassing clouds.No wind94%29.99 "Hg6 mi
10:43 pm77 °FPassing clouds.2 mph89%29.97 "Hg6 mi
9:45 pm77 °FPassing clouds.5 mph89%29.96 "Hg6 mi
8:44 pm77 °FPassing clouds.3 mph89%29.89 "Hg5 mi
7:45 pm77 °FClear.2 mph89%29.91 "Hg5 mi
6:43 pm79 °FClear.10 mph84%29.88 "Hg5 mi
5:47 pm81 °FSunny.10 mph79%29.83 "Hg5 mi
4:48 pm82 °FSunny.10 mph74%29.85 "Hg5 mi
3:46 pm84 °FSunny.12 mph62%29.85 "Hg6 mi
2:43 pm86 °FSunny.15 mph62%29.83 "Hg5 mi
1:44 pm86 °FSunny.12 mph66%29.89 "Hg5 mi
12:42 pm88 °FSunny.13 mph55%29.92 "Hg5 mi
11:43 am86 °FSunny.3 mph59%29.90 "Hg5 mi
10:44 am84 °FSunny.5 mph62%29.96 "Hg5 mi
9:43 am81 °FSunny.6 mph70%29.98 "Hg5 mi
8:41 am75 °FSunny.No wind78%29.92 "Hg4 mi
7:41 am70 °FSunny.No wind94%29.96 "Hg4 mi
6:40 am68 °FClear.3 mph94%29.93 "Hg5 mi
5:44 am68 °FClear.3 mph94%29.87 "Hg5 mi
Weather by CustomWeather, © 2017

See weather overviewHow to use our weather pages